Weather History for Sheridan, WY

Change the Weather History Date:

Wednesday, December 5, 2012

  Actual Average Record
Temperature  
Mean Temperature 39 °F 24 °F  
Max Temperature 50 °F 36 °F 77 °F (1939)
Min Temperature 28 °F 12 °F -30 °F (1972)
Degree Days  
Heating Degree Days 26 41  
Month to date heating degree days 124 202  
Since 1 July heating degree days 1808 2080  
Cooling Degree Days 0 0  
Month to date cooling degree days 0 0  
Year to date cooling degree days 664 419  
Moisture  
Dew Point 27 °F    
Average Humidity 64    
Maximum Humidity 85    
Minimum Humidity 43    
Precipitation  
Precipitation 0.00 in 0.02 in 0.26 in (1920)
Month to date precipitation 0.00 0.10  
Year to date precipitation 9.03 13.70  
Sea Level Pressure  
Sea Level Pressure 29.88 in    
Wind  
Wind Speed 6 mph (NNW)    
Max Wind Speed 21 mph    
Max Gust Speed 25 mph    
Visibility 10 miles    
Events      
T = Trace of Precipitation, MM = Missing Value Source: NWS Daily Summary

Daily Weather History Graph

Daily Weather History Graph

Search for Another Location

Airport:

Trip Planner

Search our weather history database for the weather conditions in past years. The results will help you decide how hot, cold, wet, or windy it might be!

Date:

Astronomy

Dec. 05, 2012 Rise Set
Actual Time 7:30 AM MST 4:27 PM MST
Civil Twilight 6:56 AM MST 5:00 PM MST
Nautical Twilight 6:20 AM MST 5:37 PM MST
Astronomical Twilight 5:44 AM MST 6:12 PM MST
Moon 11:33 PM MST (12/5) 11:43 AM MST (12/5)
Length of Visible Light 10h 03m
Length of Day
8h 57m
Waning Gibbous, 59% of the Moon is Illuminated
Dec 5
Waning Gibbous
Dec 6
Last Quarter
Dec 13
New
Dec 19
First Quarter
Dec 28
Full

Hourly Weather History & Observations

Time (MST) Temp. Windchill Dew Point Humidity Pressure Visibility Wind Dir Wind Speed Gust Speed Precip Events Conditions
12:53 AM 28.9 °F - 25.0 °F 85% 29.98 in 10.0 mi Calm Calm - N/A   Clear
1:53 AM 28.0 °F 24.2 °F 24.1 °F 85% 29.96 in 10.0 mi SSW 3.5 mph - N/A   Clear
2:53 AM 30.9 °F - 25.0 °F 79% 29.91 in 10.0 mi Calm Calm - N/A   Clear
3:53 AM 30.0 °F 25.2 °F 25.0 °F 82% 29.91 in 10.0 mi South 4.6 mph - N/A   Partly Cloudy
4:53 AM 32.0 °F 26.4 °F 25.0 °F 75% 29.90 in 10.0 mi SSW 5.8 mph - N/A   Clear
5:53 AM 32.0 °F 27.5 °F 26.1 °F 79% 29.88 in 10.0 mi ENE 4.6 mph - N/A   Clear
7:53 AM 30.0 °F 26.5 °F 25.0 °F 82% 29.87 in 10.0 mi NE 3.5 mph - N/A   Clear
8:53 AM 32.0 °F 28.7 °F 27.0 °F 82% 29.86 in 10.0 mi NNW 3.5 mph - N/A   Clear
9:53 AM 37.0 °F 33.3 °F 28.0 °F 70% 29.85 in 10.0 mi NNW 4.6 mph - N/A   Clear
10:53 AM 35.1 °F - 27.0 °F 72% 29.84 in 10.0 mi Calm Calm - N/A   Clear
11:53 AM 39.0 °F 34.8 °F 30.0 °F 70% 29.79 in 10.0 mi South 5.8 mph - N/A   Mostly Cloudy
12:53 PM 41.0 °F 36.4 °F 30.0 °F 65% 29.76 in 10.0 mi NW 6.9 mph - N/A   Scattered Clouds
1:53 PM 48.0 °F - 30.9 °F 52% 29.73 in 10.0 mi North 6.9 mph - N/A   Mostly Cloudy
2:53 PM 48.0 °F - 30.0 °F 50% 29.74 in 10.0 mi Calm Calm - N/A   Unknown
3:53 PM 46.0 °F 43.9 °F 30.9 °F 56% 29.76 in 10.0 mi Variable 4.6 mph - N/A   Partly Cloudy
4:53 PM 41.0 °F 38.0 °F 30.0 °F 65% 29.79 in 10.0 mi North 4.6 mph - N/A   Scattered Clouds
5:53 PM 46.0 °F 41.9 °F 30.9 °F 56% 29.81 in 10.0 mi WNW 8.1 mph - N/A   Overcast
6:53 PM 44.1 °F 39.0 °F 30.9 °F 60% 29.86 in 10.0 mi NW 9.2 mph - N/A   Overcast
7:53 PM 45.0 °F 40.6 °F 32.0 °F 60% 29.93 in 10.0 mi West 8.1 mph - N/A   Scattered Clouds
8:53 PM 44.1 °F 37.4 °F 30.9 °F 60% 29.94 in 10.0 mi WNW 13.8 mph - N/A   Scattered Clouds
9:53 PM 45.0 °F 37.9 °F 28.0 °F 52% 29.98 in 10.0 mi NNW 16.1 mph - N/A   Overcast
10:53 PM 42.1 °F 38.4 °F 21.9 °F 45% 30.04 in 10.0 mi NNE 5.8 mph - N/A   Overcast
11:53 PM 39.0 °F 31.0 °F 19.0 °F 45% 30.07 in 10.0 mi North 13.8 mph - N/A   Overcast